User: anonymous   Login
Location: Pine Mountain Observatory
(43.7910°N, 120.9377°W)
Time: 08:25:59
(UTC-07:00)
Language:

Cosmos 1076 Rocket - Orbit

View from above orbital plane
View from above orbital plane
View from above satellite
View from above satellite

Ground track
Ground track

The orbit data is extracted from the following two-line orbital elements,

1 11267U 79011B   14294.80146075  .00001206  00000-0  12769-3 0  5607
2 11267 082.5266 064.3933 0016729 207.8428 264.3876 14.88249730931254
Epoch (UTC): 21 October 2014 19:14:06
Eccentricity: 0.0016729
inclination: 82.5266°
perigee height: 592 km
apogee height: 615 km
right ascension of ascending node: 64.3933°
argument of perigee: 207.8428°
revolutions per day: 14.88249730
mean anomaly at epoch: 264.3876°
orbit number at epoch: 93125

The dashed part of the orbit path shows where the satellite is in the earth's shadow,  

DLR